This is the latest recevied weather packets stored in our database for station/object KF0JHJ. If no packets are shown the sender has not sent any weather packets the latest 10 day(s).
| Time | Temp. | Humidity | Pressure | Rain* | Wind** | Luminosity | Snow |
|---|---|---|---|---|---|---|---|
| 1778012821 | 10.56° C | 42% | 1008.8 hPa | - | - | 309 W/m² | - |
| 1778012518 | 10.56° C | 43% | 1008.7 hPa | - | - | 193 W/m² | - |
| 1778012214 | 10° C | 43% | 1008.9 hPa | - | - | 192 W/m² | - |
| 1778011913 | 10.56° C | 43% | 1008.8 hPa | - | - | 221 W/m² | - |
| 1778011611 | 10° C | 42% | 1008.9 hPa | - | - | 225 W/m² | - |
| 1778011307 | 10.56° C | 41% | 1009 hPa | - | - | 175 W/m² | - |
| 1778011003 | 10.56° C | 43% | 1008.9 hPa | - | - | 799 W/m² | - |
| 1778010700 | 10° C | 41% | 1008.8 hPa | - | - | 287 W/m² | - |
| 1778010398 | 10° C | 42% | 1009.1 hPa | - | - | 299 W/m² | - |
| 1778010093 | 10° C | 46% | 1009.1 hPa | - | - | 328 W/m² | - |
| 1778009791 | 9.44° C | 43% | 1009 hPa | - | - | 133 W/m² | - |
| 1778009487 | 10° C | 45% | 1008.8 hPa | - | - | 174 W/m² | - |
| 1778009186 | 9.44° C | 46% | 1009 hPa | - | - | 206 W/m² | - |
| 1778008883 | 8.89° C | 45% | 1009 hPa | - | - | 116 W/m² | - |
| 1778008582 | 9.44° C | 45% | 1009.1 hPa | - | - | 97 W/m² | - |
| 1778008279 | 9.44° C | 45% | 1009.2 hPa | - | - | 126 W/m² | - |
| 1778007974 | 9.44° C | 43% | 1009.1 hPa | - | - | 206 W/m² | - |
| 1778007670 | 9.44° C | 45% | 1008.9 hPa | - | - | 191 W/m² | - |
| 1778007367 | 8.89° C | 47% | 1009.1 hPa | - | - | 126 W/m² | - |
| 1778007063 | 9.44° C | 46% | 1009.2 hPa | - | - | 147 W/m² | - |
| 1778006759 | 8.89° C | 47% | 1008.9 hPa | - | - | 169 W/m² | - |
| 1778006456 | 9.44° C | 46% | 1009 hPa | - | - | 190 W/m² | - |
| 1778006153 | 9.44° C | 44% | 1008.9 hPa | - | - | 341 W/m² | - |
| 1778005851 | 9.44° C | 47% | 1009.2 hPa | - | - | 248 W/m² | - |
| 1778005547 | 9.44° C | 48% | 1009.1 hPa | - | - | 251 W/m² | - |
* Rain since midnight (hover to see other rain measurements)
** Current wind speed in m/s (hover to see current wind gust speed)